This is the latest recevied weather packets stored in our database for station/object N0OQA. If no packets are shown the sender has not sent any weather packets the latest 10 day(s).
| Time | Temp. | Humidity | Pressure | Rain* | Wind** | Luminosity | Snow |
|---|---|---|---|---|---|---|---|
| 1777308879 | 12.22° C | 100% | 1001.9 hPa | 20.07 mm | - | - | - |
| 1777308579 | 12.22° C | 100% | 1002 hPa | 20.07 mm | - | - | - |
| 1777308279 | 12.22° C | 100% | 1002.1 hPa | 20.07 mm | - | - | - |
| 1777307978 | 12.22° C | 100% | 1002.2 hPa | 20.07 mm | - | - | - |
| 1777307678 | 11.67° C | 100% | 1002.2 hPa | 19.81 mm | - | - | - |
| 1777306477 | 11.67° C | 100% | 1002.7 hPa | 19.3 mm | - | - | - |
| 1777306177 | 11.67° C | 100% | 1002.7 hPa | 18.8 mm | - | - | - |
| 1777304675 | 11.67° C | 100% | 1003 hPa | 17.27 mm | - | - | - |
| 1777304375 | 11.67° C | 100% | 1003.1 hPa | 17.02 mm | - | - | - |
| 1777303474 | 11.67° C | 100% | 1003.4 hPa | 14.99 mm | - | - | - |
| 1777303174 | 11.67° C | 100% | 1003.5 hPa | 14.48 mm | - | - | - |
| 1777302874 | 11.67° C | 100% | 1003.6 hPa | 14.48 mm | - | - | - |
| 1777302573 | 11.67° C | 100% | 1003.6 hPa | 14.22 mm | - | - | - |
| 1777301672 | 11.67° C | 100% | 1003.7 hPa | 14.22 mm | - | - | - |
| 1777301072 | 11.67° C | 100% | 1003.7 hPa | 14.22 mm | - | - | - |
| 1777300471 | 11.67° C | 100% | 1003.9 hPa | 14.22 mm | - | - | - |
| 1777299871 | 11.67° C | 100% | 1004 hPa | 14.22 mm | - | - | - |
| 1777299570 | 11.67° C | 100% | 1004.2 hPa | 14.22 mm | - | - | - |
| 1777298970 | 11.67° C | 100% | 1004.4 hPa | 14.22 mm | - | - | - |
| 1777298669 | 11.67° C | 100% | 1004.5 hPa | 14.22 mm | - | - | - |
| 1777298069 | 11.67° C | 100% | 1004.7 hPa | 14.22 mm | - | - | - |
| 1777297769 | 11.67° C | 100% | 1004.8 hPa | 14.22 mm | - | - | - |
| 1777297168 | 11.11° C | 100% | 1004.9 hPa | 14.22 mm | - | - | - |
| 1777296868 | 11.11° C | 100% | 1004.9 hPa | 14.22 mm | - | - | - |
| 1777295667 | 11.11° C | 100% | 1005.4 hPa | 14.22 mm | - | - | - |
* Rain since midnight (hover to see other rain measurements)
** Current wind speed in m/s (hover to see current wind gust speed)